Location: Shenandoah County Park
(38.9356°N, 78.4524°W)
Time: 10:40:33
(UTC-04:00)

Vanguard 1 Rocket - Pass Details

Date: 08 February 2023
Orbit: 652 x 4223 km, 34.3° (Epoch: 24 March)

Event Time Altitude Azimuth Distance (km) Brightness Sun altitude
Rises 09:01:30 0° 196° (SSW) 3,318 10.6 17.7°
Reaches altitude 10° 09:04:25 10° 176° (S) 2,673 10.5 18.2°
Maximum altitude 09:08:38 18° 133° (SE) 2,597 13.0 18.8°
Drops below altitude 10° 09:14:28 10° 95° (E) 3,914 11.7 19.7°
Sets 09:20:09 0° 80° (E) 5,643 12.0 20.5°
